contact:dominique.lefevre@mio.osupytheas.fr, maurice.libes@osupytheas.fr, didier.mallarino@osupytheas.fr
Project:EMSO http://www.emso-fr.org/EMSO-France
Depth: 2436.0 m
Title:EMSO Ligure Ouest : Data MII capteur MICROCAT
DateTime_Computer,Latitude,Longitude,Temperature,Conductivity,Pressure,DateTime_Instrument
DateTime_Computer,Latitude,Longitude,degC,S m-1,dbar,DateTime_Instrument
2020-12-31T00:00:31Z,42.805,6.029,13.2992,4.59996,2470.04,2020-12-31T02:01:32Z
2020-12-31T00:03:35Z,42.805,6.029,13.2990,4.59995,2470.04,2020-12-31T02:04:35Z
2020-12-31T00:06:38Z,42.805,6.029,13.2993,4.59996,2470.04,2020-12-31T02:07:38Z
2020-12-31T00:09:41Z,42.805,6.029,13.2991,4.59996,2470.077,2020-12-31T02:10:41Z
2020-12-31T00:12:44Z,42.805,6.029,13.2992,4.59999,2470.077,2020-12-31T02:13:44Z
2020-12-31T00:15:47Z,42.805,6.029,13.2991,4.59994,2470.077,2020-12-31T02:16:47Z
2020-12-31T00:18:50Z,42.805,6.029,13.2990,4.59994,2470.063,2020-12-31T02:19:50Z
2020-12-31T00:21:53Z,42.805,6.029,13.2991,4.59996,2470.063,2020-12-31T02:22:53Z
2020-12-31T00:24:56Z,42.805,6.029,13.2990,4.59994,2470.03,2020-12-31T02:25:57Z
2020-12-31T00:28:00Z,42.805,6.029,13.2993,4.59994,2470.03,2020-12-31T02:29:00Z
2020-12-31T00:31:03Z,42.805,6.029,13.2986,4.59996,2470.087,2020-12-31T02:32:03Z
2020-12-31T00:34:06Z,42.805,6.029,13.2991,4.59996,2470.017,2020-12-31T02:35:06Z
2020-12-31T00:37:09Z,42.805,6.029,13.2991,4.59994,2470.063,2020-12-31T02:38:09Z
2020-12-31T00:40:12Z,42.805,6.029,13.2991,4.59993,2470.017,2020-12-31T02:41:12Z
2020-12-31T00:43:15Z,42.805,6.029,13.2989,4.59997,2470.04,2020-12-31T02:44:15Z
2020-12-31T00:46:18Z,42.805,6.029,13.2990,4.59996,2470.04,2020-12-31T02:47:18Z
2020-12-31T00:49:21Z,42.805,6.029,13.2990,4.59995,2470.063,2020-12-31T02:50:22Z
2020-12-31T00:52:25Z,42.805,6.029,13.2986,4.59994,2470.077,2020-12-31T02:53:25Z
2020-12-31T00:55:28Z,42.805,6.029,13.2990,4.59996,2470.04,2020-12-31T02:56:28Z
2020-12-31T00:58:31Z,42.805,6.029,13.2991,4.59996,2470.053,2020-12-31T02:59:31Z
2020-12-31T01:01:34Z,42.805,6.029,13.2990,4.59996,2470.1,2020-12-31T03:02:34Z
2020-12-31T01:04:37Z,42.805,6.029,13.2988,4.59996,2470.03,2020-12-31T03:05:37Z
2020-12-31T01:07:40Z,42.805,6.029,13.2987,4.59993,2469.993,2020-12-31T03:08:40Z
2020-12-31T01:10:43Z,42.805,6.029,13.2985,4.59994,2470.03,2020-12-31T03:11:43Z
2020-12-31T01:13:46Z,42.805,6.029,13.2988,4.59994,2470.03,2020-12-31T03:14:47Z
2020-12-31T01:16:50Z,42.805,6.029,13.2985,4.59995,2470.063,2020-12-31T03:17:50Z
2020-12-31T01:19:53Z,42.805,6.029,13.2989,4.59994,2470.03,2020-12-31T03:20:53Z
2020-12-31T01:22:56Z,42.805,6.029,13.2989,4.59996,2470.03,2020-12-31T03:23:56Z
2020-12-31T01:25:59Z,42.805,6.029,13.2986,4.59996,2469.993,2020-12-31T03:26:59Z
2020-12-31T01:29:02Z,42.805,6.029,13.2991,4.59997,2470.053,2020-12-31T03:30:02Z
2020-12-31T01:32:05Z,42.805,6.029,13.2990,4.59996,2469.993,2020-12-31T03:33:05Z
2020-12-31T01:35:08Z,42.805,6.029,13.2989,4.59993,2470.017,2020-12-31T03:36:08Z
2020-12-31T01:38:11Z,42.805,6.029,13.2985,4.59994,2469.993,2020-12-31T03:39:12Z
2020-12-31T01:41:14Z,42.805,6.029,13.2983,4.59994,2470.03,2020-12-31T03:42:15Z
2020-12-31T01:44:18Z,42.805,6.029,13.2993,4.59994,2470.04,2020-12-31T03:45:18Z
2020-12-31T01:47:21Z,42.805,6.029,13.2988,4.59998,2470.03,2020-12-31T03:48:21Z
2020-12-31T01:50:24Z,42.805,6.029,13.2986,4.59999,2470.04,2020-12-31T03:51:24Z
2020-12-31T01:53:27Z,42.805,6.029,13.2991,4.59996,2470.053,2020-12-31T03:54:27Z
2020-12-31T01:56:30Z,42.805,6.029,13.2986,4.59994,2470.007,2020-12-31T03:57:30Z
2020-12-31T01:59:33Z,42.805,6.029,13.2989,4.59996,2470.017,2020-12-31T04:00:33Z
2020-12-31T02:02:36Z,42.805,6.029,13.2987,4.59994,2470.017,2020-12-31T04:03:37Z
2020-12-31T02:05:39Z,42.805,6.029,13.2987,4.59995,2470.017,2020-12-31T04:06:40Z
2020-12-31T02:08:43Z,42.805,6.029,13.2988,4.59994,2470.04,2020-12-31T04:09:43Z
2020-12-31T02:11:46Z,42.805,6.029,13.2984,4.59992,2470.017,2020-12-31T04:12:46Z
2020-12-31T02:14:49Z,42.805,6.029,13.2989,4.59991,2470.03,2020-12-31T04:15:49Z
2020-12-31T02:17:52Z,42.805,6.029,13.2984,4.59994,2470.03,2020-12-31T04:18:52Z
2020-12-31T02:20:55Z,42.805,6.029,13.2986,4.59991,2470.007,2020-12-31T04:21:55Z
2020-12-31T02:23:58Z,42.805,6.029,13.2980,4.59991,2470.04,2020-12-31T04:24:58Z
2020-12-31T02:27:01Z,42.805,6.029,13.2989,4.59992,2470.03,2020-12-31T04:28:01Z
2020-12-31T02:30:04Z,42.805,6.029,13.2983,4.59993,2469.993,2020-12-31T04:31:05Z
2020-12-31T02:33:08Z,42.805,6.029,13.2982,4.59993,2469.993,2020-12-31T04:34:08Z
2020-12-31T02:36:11Z,42.805,6.029,13.2986,4.59993,2470.03,2020-12-31T04:37:11Z
2020-12-31T02:39:14Z,42.805,6.029,13.2984,4.59993,2470.017,2020-12-31T04:40:14Z
2020-12-31T02:42:17Z,42.805,6.029,13.2989,4.59993,2470.053,2020-12-31T04:43:17Z
2020-12-31T02:45:20Z,42.805,6.029,13.2984,4.59991,2470.053,2020-12-31T04:46:20Z
2020-12-31T02:48:23Z,42.805,6.029,13.2986,4.59992,2470.017,2020-12-31T04:49:23Z
2020-12-31T02:51:26Z,42.805,6.029,13.2985,4.59993,2470.017,2020-12-31T04:52:26Z
2020-12-31T02:54:29Z,42.805,6.029,13.2986,4.59995,2470.017,2020-12-31T04:55:30Z
2020-12-31T02:57:33Z,42.805,6.029,13.2988,4.59993,2470.03,2020-12-31T04:58:33Z
2020-12-31T03:00:36Z,42.805,6.029,13.2985,4.59994,2470.04,2020-12-31T05:01:36Z
2020-12-31T03:03:39Z,42.805,6.029,13.2984,4.59993,2470.03,2020-12-31T05:04:39Z
2020-12-31T03:06:42Z,42.805,6.029,13.2984,4.59991,2470.03,2020-12-31T05:07:42Z
2020-12-31T03:09:45Z,42.805,6.029,13.2992,4.59992,2470.077,2020-12-31T05:10:45Z
2020-12-31T03:12:48Z,42.805,6.029,13.2989,4.59992,2470.077,2020-12-31T05:13:48Z
2020-12-31T03:15:51Z,42.805,6.029,13.2985,4.59995,2470.063,2020-12-31T05:16:51Z
2020-12-31T03:18:54Z,42.805,6.029,13.2989,4.59992,2470.087,2020-12-31T05:19:55Z
2020-12-31T03:21:58Z,42.805,6.029,13.2984,4.59991,2470.063,2020-12-31T05:22:58Z
2020-12-31T03:25:01Z,42.805,6.029,13.2990,4.59994,2470.063,2020-12-31T05:26:01Z
2020-12-31T03:28:04Z,42.805,6.029,13.2983,4.59992,2470.077,2020-12-31T05:29:04Z
2020-12-31T03:31:07Z,42.805,6.029,13.2986,4.59992,2470.04,2020-12-31T05:32:07Z
2020-12-31T03:34:10Z,42.805,6.029,13.2984,4.59991,2470.04,2020-12-31T05:35:10Z
2020-12-31T03:37:13Z,42.805,6.029,13.2986,4.59991,2470.1,2020-12-31T05:38:13Z
2020-12-31T03:40:16Z,42.805,6.029,13.2986,4.59992,2470.077,2020-12-31T05:41:16Z
2020-12-31T03:43:19Z,42.805,6.029,13.2986,4.59991,2470.063,2020-12-31T05:44:20Z
2020-12-31T03:46:23Z,42.805,6.029,13.2987,4.59991,2470.133,2020-12-31T05:47:23Z
2020-12-31T03:49:26Z,42.805,6.029,13.2986,4.59992,2470.087,2020-12-31T05:50:26Z
2020-12-31T03:52:29Z,42.805,6.029,13.2984,4.59994,2470.04,2020-12-31T05:53:29Z
2020-12-31T03:55:32Z,42.805,6.029,13.2985,4.59991,2470.063,2020-12-31T05:56:32Z
2020-12-31T03:58:35Z,42.805,6.029,13.2987,4.59994,2470.087,2020-12-31T05:59:35Z
2020-12-31T04:01:38Z,42.805,6.029,13.2988,4.59991,2470.087,2020-12-31T06:02:38Z
2020-12-31T04:04:41Z,42.805,6.029,13.2985,4.59991,2470.124,2020-12-31T06:05:41Z
2020-12-31T04:07:44Z,42.805,6.029,13.2983,4.59988,2470.087,2020-12-31T06:08:45Z
2020-12-31T04:10:47Z,42.805,6.029,13.2985,4.59988,2470.087,2020-12-31T06:11:48Z
2020-12-31T04:13:51Z,42.805,6.029,13.2982,4.59990,2470.147,2020-12-31T06:14:51Z
2020-12-31T04:16:54Z,42.805,6.029,13.2983,4.59989,2470.124,2020-12-31T06:17:54Z
2020-12-31T04:19:57Z,42.805,6.029,13.2984,4.59987,2470.077,2020-12-31T06:20:57Z
2020-12-31T04:23:00Z,42.805,6.029,13.2986,4.59990,2470.147,2020-12-31T06:24:00Z
2020-12-31T04:26:03Z,42.805,6.029,13.2986,4.59987,2470.11,2020-12-31T06:27:03Z
2020-12-31T04:29:06Z,42.805,6.029,13.2985,4.59987,2470.124,2020-12-31T06:30:06Z
2020-12-31T04:32:09Z,42.805,6.029,13.2982,4.59986,2470.087,2020-12-31T06:33:10Z
2020-12-31T04:35:13Z,42.805,6.029,13.2982,4.59987,2470.096,2020-12-31T06:36:13Z
2020-12-31T04:38:16Z,42.805,6.029,13.2980,4.59988,2470.11,2020-12-31T06:39:16Z
2020-12-31T04:41:19Z,42.805,6.029,13.2981,4.59988,2470.124,2020-12-31T06:42:19Z
2020-12-31T04:44:22Z,42.805,6.029,13.2982,4.59988,2470.133,2020-12-31T06:45:22Z
2020-12-31T04:47:25Z,42.805,6.029,13.2980,4.59986,2470.171,2020-12-31T06:48:25Z
2020-12-31T04:50:28Z,42.805,6.029,13.2982,4.59985,2470.11,2020-12-31T06:51:28Z
2020-12-31T04:53:31Z,42.805,6.029,13.2979,4.59987,2470.124,2020-12-31T06:54:31Z
2020-12-31T04:56:34Z,42.805,6.029,13.2979,4.59985,2470.171,2020-12-31T06:57:35Z
2020-12-31T04:59:37Z,42.805,6.029,13.2978,4.59983,2470.133,2020-12-31T07:00:38Z
2020-12-31T05:02:41Z,42.805,6.029,13.2983,4.59985,2470.133,2020-12-31T07:03:41Z
2020-12-31T05:05:44Z,42.805,6.029,13.2978,4.59984,2470.156,2020-12-31T07:06:44Z
2020-12-31T05:08:47Z,42.805,6.029,13.2982,4.59987,2470.156,2020-12-31T07:09:47Z
2020-12-31T05:11:50Z,42.805,6.029,13.2978,4.59985,2470.194,2020-12-31T07:12:50Z
2020-12-31T05:14:53Z,42.805,6.029,13.2980,4.59984,2470.156,2020-12-31T07:15:53Z
2020-12-31T05:17:56Z,42.805,6.029,13.2983,4.59986,2470.147,2020-12-31T07:18:56Z
2020-12-31T05:20:59Z,42.805,6.029,13.2981,4.59985,2470.133,2020-12-31T07:22:00Z
2020-12-31T05:24:02Z,42.805,6.029,13.2980,4.59984,2470.133,2020-12-31T07:25:03Z
2020-12-31T05:27:06Z,42.805,6.029,13.2980,4.59985,2470.203,2020-12-31T07:28:06Z
2020-12-31T05:30:09Z,42.805,6.029,13.2978,4.59983,2470.194,2020-12-31T07:31:09Z
2020-12-31T05:33:12Z,42.805,6.029,13.2979,4.59986,2470.203,2020-12-31T07:34:12Z
2020-12-31T05:36:15Z,42.805,6.029,13.2979,4.59983,2470.18,2020-12-31T07:37:15Z
2020-12-31T05:39:18Z,42.805,6.029,13.2979,4.59988,2470.217,2020-12-31T07:40:18Z
2020-12-31T05:42:21Z,42.805,6.029,13.2979,4.59983,2470.156,2020-12-31T07:43:21Z
2020-12-31T05:45:24Z,42.805,6.029,13.2979,4.59985,2470.227,2020-12-31T07:46:24Z
2020-12-31T05:48:27Z,42.805,6.029,13.2980,4.59987,2470.203,2020-12-31T07:49:28Z
2020-12-31T05:51:31Z,42.805,6.029,13.2977,4.59985,2470.227,2020-12-31T07:52:31Z
2020-12-31T05:54:34Z,42.805,6.029,13.2980,4.59986,2470.217,2020-12-31T07:55:34Z
2020-12-31T05:57:37Z,42.805,6.029,13.2980,4.59986,2470.203,2020-12-31T07:58:37Z
2020-12-31T06:00:40Z,42.805,6.029,13.2982,4.59986,2470.18,2020-12-31T08:01:40Z
2020-12-31T06:03:43Z,42.805,6.029,13.2979,4.59986,2470.217,2020-12-31T08:04:43Z
2020-12-31T06:06:46Z,42.805,6.029,13.2979,4.59985,2470.227,2020-12-31T08:07:46Z
2020-12-31T06:09:49Z,42.805,6.029,13.2977,4.59986,2470.227,2020-12-31T08:10:49Z
2020-12-31T06:12:52Z,42.805,6.029,13.2979,4.59985,2470.203,2020-12-31T08:13:53Z
2020-12-31T06:15:56Z,42.805,6.029,13.2979,4.59986,2470.227,2020-12-31T08:16:56Z
2020-12-31T06:18:59Z,42.805,6.029,13.2978,4.59985,2470.203,2020-12-31T08:19:59Z
2020-12-31T06:22:02Z,42.805,6.029,13.2981,4.59985,2470.203,2020-12-31T08:23:02Z
2020-12-31T06:25:05Z,42.805,6.029,13.2975,4.59985,2470.227,2020-12-31T08:26:05Z
2020-12-31T06:28:08Z,42.805,6.029,13.2974,4.59983,2470.264,2020-12-31T08:29:08Z
2020-12-31T06:31:11Z,42.805,6.029,13.2978,4.59985,2470.25,2020-12-31T08:32:11Z
2020-12-31T06:34:14Z,42.805,6.029,13.2980,4.59986,2470.24,2020-12-31T08:35:14Z
2020-12-31T06:37:17Z,42.805,6.029,13.2980,4.59984,2470.227,2020-12-31T08:38:18Z
2020-12-31T06:40:21Z,42.805,6.029,13.2978,4.59986,2470.287,2020-12-31T08:41:21Z
2020-12-31T06:43:24Z,42.805,6.029,13.2981,4.59988,2470.227,2020-12-31T08:44:24Z
2020-12-31T06:46:27Z,42.805,6.029,13.2978,4.59986,2470.25,2020-12-31T08:47:27Z
2020-12-31T06:49:30Z,42.805,6.029,13.2982,4.59984,2470.25,2020-12-31T08:50:30Z
2020-12-31T06:52:33Z,42.805,6.029,13.2978,4.59984,2470.273,2020-12-31T08:53:33Z
2020-12-31T06:55:36Z,42.805,6.029,13.2983,4.59986,2470.227,2020-12-31T08:56:36Z
2020-12-31T06:58:39Z,42.805,6.029,13.2979,4.59989,2470.264,2020-12-31T08:59:39Z
2020-12-31T07:01:42Z,42.805,6.029,13.2979,4.59984,2470.273,2020-12-31T09:02:43Z
2020-12-31T07:04:45Z,42.805,6.029,13.2983,4.59984,2470.297,2020-12-31T09:05:46Z
2020-12-31T07:07:49Z,42.805,6.029,13.2975,4.59985,2470.273,2020-12-31T09:08:49Z
2020-12-31T07:10:52Z,42.805,6.029,13.2979,4.59989,2470.297,2020-12-31T09:11:52Z
2020-12-31T07:13:55Z,42.805,6.029,13.2982,4.59987,2470.31,2020-12-31T09:14:55Z
2020-12-31T07:16:58Z,42.805,6.029,13.2979,4.59986,2470.273,2020-12-31T09:17:58Z
2020-12-31T07:20:01Z,42.805,6.029,13.2975,4.59986,2470.287,2020-12-31T09:21:01Z
2020-12-31T07:23:04Z,42.805,6.029,13.2976,4.59986,2470.25,2020-12-31T09:24:04Z
2020-12-31T07:26:07Z,42.805,6.029,13.2984,4.59985,2470.273,2020-12-31T09:27:07Z
2020-12-31T07:29:10Z,42.805,6.029,13.2980,4.59986,2470.297,2020-12-31T09:30:11Z
2020-12-31T07:32:14Z,42.805,6.029,13.2980,4.59986,2470.32,2020-12-31T09:33:14Z
2020-12-31T07:35:17Z,42.805,6.029,13.2978,4.59986,2470.32,2020-12-31T09:36:17Z
2020-12-31T07:38:20Z,42.805,6.029,13.2978,4.59985,2470.297,2020-12-31T09:39:20Z
2020-12-31T07:41:23Z,42.805,6.029,13.2979,4.59984,2470.283,2020-12-31T09:42:23Z
2020-12-31T07:44:26Z,42.805,6.029,13.2980,4.59983,2470.32,2020-12-31T09:45:26Z
2020-12-31T07:47:29Z,42.805,6.029,13.2981,4.59984,2470.32,2020-12-31T09:48:29Z
2020-12-31T07:50:32Z,42.805,6.029,13.2976,4.59984,2470.334,2020-12-31T09:51:32Z
2020-12-31T07:53:35Z,42.805,6.029,13.2982,4.59986,2470.31,2020-12-31T09:54:36Z
2020-12-31T07:56:39Z,42.805,6.029,13.2982,4.59985,2470.297,2020-12-31T09:57:39Z
2020-12-31T07:59:42Z,42.805,6.029,13.2979,4.59985,2470.32,2020-12-31T10:00:42Z
2020-12-31T08:02:45Z,42.805,6.029,13.2982,4.59986,2470.273,2020-12-31T10:03:45Z
2020-12-31T08:05:48Z,42.805,6.029,13.2979,4.59986,2470.297,2020-12-31T10:06:48Z
2020-12-31T08:08:51Z,42.805,6.029,13.2980,4.59986,2470.273,2020-12-31T10:09:51Z
2020-12-31T08:11:54Z,42.805,6.029,13.2982,4.59986,2470.297,2020-12-31T10:12:54Z
2020-12-31T08:14:57Z,42.805,6.029,13.2977,4.59986,2470.297,2020-12-31T10:15:57Z
2020-12-31T08:18:00Z,42.805,6.029,13.2978,4.59986,2470.31,2020-12-31T10:19:01Z
2020-12-31T08:21:04Z,42.805,6.029,13.2978,4.59986,2470.32,2020-12-31T10:22:04Z
2020-12-31T08:24:07Z,42.805,6.029,13.2978,4.59986,2470.297,2020-12-31T10:25:07Z
2020-12-31T08:27:10Z,42.805,6.029,13.2980,4.59984,2470.334,2020-12-31T10:28:10Z
2020-12-31T08:30:13Z,42.805,6.029,13.2980,4.59986,2470.31,2020-12-31T10:31:13Z
2020-12-31T08:33:16Z,42.805,6.029,13.2979,4.59985,2470.31,2020-12-31T10:34:16Z
2020-12-31T08:36:19Z,42.805,6.029,13.2979,4.59986,2470.287,2020-12-31T10:37:19Z
2020-12-31T08:39:22Z,42.805,6.029,13.2982,4.59986,2470.32,2020-12-31T10:40:22Z
2020-12-31T08:42:25Z,42.805,6.029,13.2977,4.59986,2470.343,2020-12-31T10:43:26Z
2020-12-31T08:45:29Z,42.805,6.029,13.2981,4.59986,2470.32,2020-12-31T10:46:29Z
2020-12-31T08:48:32Z,42.805,6.029,13.2976,4.59986,2470.334,2020-12-31T10:49:32Z
2020-12-31T08:51:35Z,42.805,6.029,13.2977,4.59986,2470.334,2020-12-31T10:52:35Z
2020-12-31T08:54:38Z,42.805,6.029,13.2976,4.59985,2470.343,2020-12-31T10:55:38Z
2020-12-31T08:57:41Z,42.805,6.029,13.2976,4.59984,2470.334,2020-12-31T10:58:41Z
2020-12-31T09:00:44Z,42.805,6.029,13.2977,4.59984,2470.297,2020-12-31T11:01:44Z
2020-12-31T09:03:47Z,42.805,6.029,13.2978,4.59983,2470.297,2020-12-31T11:04:48Z
2020-12-31T09:06:50Z,42.805,6.029,13.2983,4.59984,2470.334,2020-12-31T11:07:51Z
2020-12-31T09:09:54Z,42.805,6.029,13.2979,4.59986,2470.32,2020-12-31T11:10:54Z
2020-12-31T09:12:57Z,42.805,6.029,13.2979,4.59986,2470.32,2020-12-31T11:13:57Z
2020-12-31T09:16:00Z,42.805,6.029,13.2979,4.59986,2470.297,2020-12-31T11:17:00Z
2020-12-31T09:19:03Z,42.805,6.029,13.2976,4.59986,2470.32,2020-12-31T11:20:03Z
2020-12-31T09:22:06Z,42.805,6.029,13.2976,4.59985,2470.334,2020-12-31T11:23:06Z
2020-12-31T09:25:09Z,42.805,6.029,13.2982,4.59986,2470.334,2020-12-31T11:26:09Z
2020-12-31T09:28:12Z,42.805,6.029,13.2978,4.59985,2470.32,2020-12-31T11:29:13Z
2020-12-31T09:31:15Z,42.805,6.029,13.2979,4.59984,2470.334,2020-12-31T11:32:16Z
2020-12-31T09:34:19Z,42.805,6.029,13.2976,4.59984,2470.32,2020-12-31T11:35:19Z
2020-12-31T09:37:22Z,42.805,6.029,13.2978,4.59986,2470.297,2020-12-31T11:38:22Z
2020-12-31T09:40:25Z,42.805,6.029,13.2979,4.59986,2470.32,2020-12-31T11:41:25Z
2020-12-31T09:43:28Z,42.805,6.029,13.2976,4.59986,2470.297,2020-12-31T11:44:28Z
2020-12-31T09:46:31Z,42.805,6.029,13.2982,4.59986,2470.31,2020-12-31T11:47:31Z
2020-12-31T09:49:34Z,42.805,6.029,13.2979,4.59986,2470.273,2020-12-31T11:50:34Z
2020-12-31T09:52:37Z,42.805,6.029,13.2979,4.59986,2470.334,2020-12-31T11:53:38Z
2020-12-31T09:55:40Z,42.805,6.029,13.2983,4.59988,2470.297,2020-12-31T11:56:41Z
2020-12-31T09:58:44Z,42.805,6.029,13.2983,4.59987,2470.297,2020-12-31T11:59:44Z
2020-12-31T10:01:47Z,42.805,6.029,13.2979,4.59988,2470.287,2020-12-31T12:02:47Z
2020-12-31T10:04:50Z,42.805,6.029,13.2977,4.59988,2470.32,2020-12-31T12:05:50Z
2020-12-31T10:07:53Z,42.805,6.029,13.2976,4.59986,2470.32,2020-12-31T12:08:53Z
2020-12-31T10:10:56Z,42.805,6.029,13.2980,4.59986,2470.31,2020-12-31T12:11:56Z
2020-12-31T10:13:59Z,42.805,6.029,13.2981,4.59986,2470.287,2020-12-31T12:14:59Z
2020-12-31T10:17:02Z,42.805,6.029,13.2981,4.59986,2470.25,2020-12-31T12:18:03Z
2020-12-31T10:20:05Z,42.805,6.029,13.2978,4.59986,2470.273,2020-12-31T12:21:06Z
2020-12-31T10:23:09Z,42.805,6.029,13.2981,4.59985,2470.273,2020-12-31T12:24:09Z
2020-12-31T10:26:12Z,42.805,6.029,13.2979,4.59986,2470.334,2020-12-31T12:27:12Z
2020-12-31T10:29:15Z,42.805,6.029,13.2980,4.59985,2470.273,2020-12-31T12:30:15Z
2020-12-31T10:32:18Z,42.805,6.029,13.2979,4.59986,2470.32,2020-12-31T12:33:18Z
2020-12-31T10:35:21Z,42.805,6.029,13.2979,4.59985,2470.283,2020-12-31T12:36:21Z
2020-12-31T10:38:24Z,42.805,6.029,13.2979,4.59986,2470.287,2020-12-31T12:39:24Z
2020-12-31T10:41:27Z,42.805,6.029,13.2976,4.59986,2470.31,2020-12-31T12:42:28Z
2020-12-31T10:44:31Z,42.805,6.029,13.2979,4.59984,2470.297,2020-12-31T12:45:31Z
2020-12-31T10:47:34Z,42.805,6.029,13.2976,4.59986,2470.287,2020-12-31T12:48:34Z
2020-12-31T10:50:37Z,42.805,6.029,13.2979,4.59986,2470.273,2020-12-31T12:51:37Z
2020-12-31T10:53:40Z,42.805,6.029,13.2980,4.59985,2470.297,2020-12-31T12:54:40Z
2020-12-31T10:56:43Z,42.805,6.029,13.2983,4.59992,2470.287,2020-12-31T12:57:43Z
2020-12-31T10:59:46Z,42.805,6.029,13.2978,4.59990,2470.31,2020-12-31T13:00:46Z
2020-12-31T11:02:49Z,42.805,6.029,13.2974,4.59989,2470.287,2020-12-31T13:03:49Z
2020-12-31T11:05:52Z,42.805,6.029,13.2979,4.59985,2470.287,2020-12-31T13:06:53Z
2020-12-31T11:08:56Z,42.805,6.029,13.2980,4.59986,2470.227,2020-12-31T13:09:56Z
2020-12-31T11:11:59Z,42.805,6.029,13.2977,4.59985,2470.287,2020-12-31T13:12:59Z
2020-12-31T11:15:02Z,42.805,6.029,13.2981,4.59985,2470.273,2020-12-31T13:16:02Z
2020-12-31T11:18:05Z,42.805,6.029,13.2977,4.59986,2470.25,2020-12-31T13:19:05Z
2020-12-31T11:21:08Z,42.805,6.029,13.2979,4.59986,2470.227,2020-12-31T13:22:08Z
2020-12-31T11:24:11Z,42.805,6.029,13.2982,4.59986,2470.264,2020-12-31T13:25:11Z
2020-12-31T11:27:14Z,42.805,6.029,13.2982,4.59986,2470.25,2020-12-31T13:28:15Z
2020-12-31T11:30:17Z,42.805,6.029,13.2978,4.59986,2470.25,2020-12-31T13:31:18Z
2020-12-31T11:33:21Z,42.805,6.029,13.2979,4.59985,2470.273,2020-12-31T13:34:21Z
2020-12-31T11:36:24Z,42.805,6.029,13.2978,4.59985,2470.25,2020-12-31T13:37:24Z
2020-12-31T11:39:27Z,42.805,6.029,13.2980,4.59985,2470.24,2020-12-31T13:40:27Z
2020-12-31T11:42:30Z,42.805,6.029,13.2979,4.59985,2470.24,2020-12-31T13:43:30Z
2020-12-31T11:45:33Z,42.805,6.029,13.2981,4.59987,2470.203,2020-12-31T13:46:33Z
2020-12-31T11:48:36Z,42.805,6.029,13.2979,4.59986,2470.24,2020-12-31T13:49:36Z
2020-12-31T11:51:39Z,42.805,6.029,13.2982,4.59984,2470.24,2020-12-31T13:52:40Z
2020-12-31T11:54:42Z,42.805,6.029,13.2979,4.59990,2470.227,2020-12-31T13:55:43Z
2020-12-31T11:57:46Z,42.805,6.029,13.2980,4.59985,2470.227,2020-12-31T13:58:46Z
2020-12-31T12:00:49Z,42.805,6.029,13.2979,4.59986,2470.203,2020-12-31T14:01:49Z
2020-12-31T12:03:52Z,42.805,6.029,13.2979,4.59985,2470.227,2020-12-31T14:04:52Z
2020-12-31T12:06:55Z,42.805,6.029,13.2982,4.59985,2470.264,2020-12-31T14:07:55Z
2020-12-31T12:09:58Z,42.805,6.029,13.2977,4.59986,2470.203,2020-12-31T14:10:58Z
2020-12-31T12:13:01Z,42.805,6.029,13.2976,4.59986,2470.24,2020-12-31T14:14:01Z
2020-12-31T12:16:04Z,42.805,6.029,13.2983,4.59986,2470.203,2020-12-31T14:17:05Z
2020-12-31T12:19:07Z,42.805,6.029,13.2981,4.59986,2470.217,2020-12-31T14:20:08Z
2020-12-31T12:22:11Z,42.805,6.029,13.2982,4.59985,2470.203,2020-12-31T14:23:11Z
2020-12-31T12:25:14Z,42.805,6.029,13.2976,4.59986,2470.217,2020-12-31T14:26:14Z
2020-12-31T12:28:17Z,42.805,6.029,13.2982,4.59985,2470.203,2020-12-31T14:29:17Z
2020-12-31T12:31:20Z,42.805,6.029,13.2977,4.59986,2470.194,2020-12-31T14:32:20Z
2020-12-31T12:34:23Z,42.805,6.029,13.2981,4.59987,2470.227,2020-12-31T14:35:23Z
2020-12-31T12:37:26Z,42.805,6.029,13.2982,4.59987,2470.203,2020-12-31T14:38:26Z
2020-12-31T12:40:29Z,42.805,6.029,13.2979,4.59984,2470.156,2020-12-31T14:41:30Z
2020-12-31T12:43:32Z,42.805,6.029,13.2980,4.59986,2470.203,2020-12-31T14:44:33Z
2020-12-31T12:46:36Z,42.805,6.029,13.2979,4.59985,2470.18,2020-12-31T14:47:36Z
2020-12-31T12:49:39Z,42.805,6.029,13.2979,4.59986,2470.156,2020-12-31T14:50:39Z
2020-12-31T12:52:42Z,42.805,6.029,13.2977,4.59986,2470.171,2020-12-31T14:53:42Z
2020-12-31T12:55:45Z,42.805,6.029,13.2981,4.59986,2470.18,2020-12-31T14:56:45Z
2020-12-31T12:58:48Z,42.805,6.029,13.2979,4.59984,2470.156,2020-12-31T14:59:48Z
2020-12-31T13:01:51Z,42.805,6.029,13.2979,4.59985,2470.18,2020-12-31T15:02:51Z
2020-12-31T13:04:54Z,42.805,6.029,13.2980,4.59985,2470.147,2020-12-31T15:05:55Z
2020-12-31T13:07:58Z,42.805,6.029,13.2976,4.59986,2470.156,2020-12-31T15:08:58Z
2020-12-31T13:11:01Z,42.805,6.029,13.2981,4.59986,2470.156,2020-12-31T15:12:01Z
2020-12-31T13:14:04Z,42.805,6.029,13.2975,4.59986,2470.156,2020-12-31T15:15:04Z
2020-12-31T13:17:07Z,42.805,6.029,13.2979,4.59986,2470.156,2020-12-31T15:18:07Z
2020-12-31T13:20:10Z,42.805,6.029,13.2980,4.59986,2470.171,2020-12-31T15:21:10Z
2020-12-31T13:23:13Z,42.805,6.029,13.2978,4.59985,2470.156,2020-12-31T15:24:13Z
2020-12-31T13:26:16Z,42.805,6.029,13.2981,4.59986,2470.194,2020-12-31T15:27:16Z
2020-12-31T13:29:19Z,42.805,6.029,13.2979,4.59986,2470.133,2020-12-31T15:30:20Z
2020-12-31T13:32:23Z,42.805,6.029,13.2976,4.59988,2470.156,2020-12-31T15:33:23Z
2020-12-31T13:35:26Z,42.805,6.029,13.2980,4.59985,2470.133,2020-12-31T15:36:26Z
2020-12-31T13:38:29Z,42.805,6.029,13.2980,4.59985,2470.171,2020-12-31T15:39:29Z
2020-12-31T13:41:32Z,42.805,6.029,13.2980,4.59986,2470.133,2020-12-31T15:42:32Z
2020-12-31T13:44:35Z,42.805,6.029,13.2982,4.59986,2470.133,2020-12-31T15:45:35Z
2020-12-31T13:47:38Z,42.805,6.029,13.2979,4.59986,2470.171,2020-12-31T15:48:38Z
2020-12-31T13:50:41Z,42.805,6.029,13.2979,4.59984,2470.147,2020-12-31T15:51:41Z
2020-12-31T13:53:44Z,42.805,6.029,13.2979,4.59985,2470.133,2020-12-31T15:54:45Z
2020-12-31T13:56:48Z,42.805,6.029,13.2979,4.59986,2470.133,2020-12-31T15:57:48Z
2020-12-31T13:59:51Z,42.805,6.029,13.2983,4.59986,2470.147,2020-12-31T16:00:51Z
2020-12-31T14:02:54Z,42.805,6.029,13.2981,4.59986,2470.133,2020-12-31T16:03:54Z
2020-12-31T14:05:57Z,42.805,6.029,13.2977,4.59983,2470.156,2020-12-31T16:06:57Z
2020-12-31T14:09:00Z,42.805,6.029,13.2982,4.59985,2470.124,2020-12-31T16:10:00Z
2020-12-31T14:12:03Z,42.805,6.029,13.2979,4.59984,2470.147,2020-12-31T16:13:03Z
2020-12-31T14:15:06Z,42.805,6.029,13.2979,4.59986,2470.156,2020-12-31T16:16:06Z
2020-12-31T14:18:09Z,42.805,6.029,13.2982,4.59984,2470.133,2020-12-31T16:19:10Z
2020-12-31T14:21:13Z,42.805,6.029,13.2976,4.59984,2470.171,2020-12-31T16:22:13Z
2020-12-31T14:24:16Z,42.805,6.029,13.2979,4.59984,2470.11,2020-12-31T16:25:16Z
2020-12-31T14:27:19Z,42.805,6.029,13.2983,4.59983,2470.133,2020-12-31T16:28:19Z
2020-12-31T14:30:22Z,42.805,6.029,13.2982,4.59983,2470.11,2020-12-31T16:31:22Z
2020-12-31T14:33:25Z,42.805,6.029,13.2978,4.59985,2470.133,2020-12-31T16:34:25Z
2020-12-31T14:36:28Z,42.805,6.029,13.2979,4.59985,2470.156,2020-12-31T16:37:28Z
2020-12-31T14:39:31Z,42.805,6.029,13.2978,4.59985,2470.171,2020-12-31T16:40:31Z
2020-12-31T14:42:34Z,42.805,6.029,13.2982,4.59984,2470.133,2020-12-31T16:43:35Z
2020-12-31T14:45:38Z,42.805,6.029,13.2983,4.59984,2470.11,2020-12-31T16:46:38Z
2020-12-31T14:48:41Z,42.805,6.029,13.2978,4.59984,2470.133,2020-12-31T16:49:41Z
2020-12-31T14:51:44Z,42.805,6.029,13.2983,4.59984,2470.133,2020-12-31T16:52:44Z
2020-12-31T14:54:47Z,42.805,6.029,13.2976,4.59983,2470.133,2020-12-31T16:55:47Z
2020-12-31T14:57:50Z,42.805,6.029,13.2979,4.59983,2470.156,2020-12-31T16:58:50Z
2020-12-31T15:00:53Z,42.805,6.029,13.2982,4.59984,2470.147,2020-12-31T17:01:53Z